weather.gov     
National Weather Service

Terminal Aerodrome Forecast
NWS Homepage
This page is being discontinued on March 12, 2014.
The same data is available at this site. Please update your bookmarks.
Thank you, and we apologize for the inconvenience.
Please send an email to SR-SRH.Webmaster@noaa.gov with any concerns.


Current Version
Previous Version:    01  02  03  04  05  06  07  08  09  10  11  12  13  14  15  16  17  18  19  20  21  22  23  24  25  26  27  28  29  30  
   31  32  33  34  35  36  37  38  39  40  41  42  43  44  45  46  47  48  49  
[Printable]
076
FTUS43 KIND 281100
TAFLAF
TAF
KLAF 281128Z 2812/2912 13004KT P6SM FEW120 SCT250
     FM281600 16009KT P6SM SCT150 BKN250
     FM282200 13010KT P6SM SCT080 OVC150
     FM290600 17013G20KT P6SM VCSH OVC040
      AMD LTD TO CLD VIS AND WIND TIL 281400=


U.S. Dept. of Commerce
NOAA National Weather Service
1325 East West Highway
Silver Spring, MD 20910
E-mail: w-nws.webmaster@noaa.gov
Page last modified: May 16, 2007
NATIONAL WEATHER SERVICE: for Safety, for Work, for Fun - FOR LIFE